Hourly Data Report for October 05, 2019

All times are specified in Local Standard Time (LST). Add 1 hour to adjust for Daylight Saving Time where and when it is observed.

SEPT-ILES
QUEBEC
Current Station Operator: ECCC - MSC

50°13'00.000" N
66°15'00.000" W
52.60 m
7047914
71279
XZV

Download Data

Hourly Data (October 2019)
Hourly Data Report for October 5, 2019
TIME Temp Definition
°C
Dew Point Definition
°C
Rel Hum Definition
%
Wind Dir Definition
10's deg

Wind Spd Definition
km/h
Visibility Definition
km
Stn Press Definition
kPa
Hmdx Definition


Wind Chill Definition


Weather Definition


00:00 3.6 -2.9 62 33 11   101.22     LegendNANA
01:00 3.2 -2.7 65 30 9   101.27     LegendNANA
02:00 3.4 -3.4 61 33 14   101.34     LegendNANA
03:00 2.5 -3.6 64 31 5   101.38     LegendNANA
04:00 3.5 -3.4 61 33 7   101.39     LegendNANA
05:00 4.1 -3.1 59 32 11   101.41     LegendNANA
06:00 4.6 -3.3 56 32 21   101.44     LegendNANA
07:00 4.8 -2.9 57 32 17   101.50     LegendNANA
08:00 4.7 -3.0 57 33 21   101.54     LegendNANA
09:00 5.3 -3.1 55 32 17   101.60     LegendNANA
10:00 7.2 -2.9 49 31 21   101.57     LegendNANA
11:00 9.4 -3.1 41 32 20   101.55     LegendNANA
12:00 10.4 -3.1 38 32 18   101.52     LegendNANA
13:00 11.3 -2.7 37 31 20   101.47     LegendNANA
14:00 11.7 -3.0 36 31 17   101.46     LegendNANA
15:00 11.6 -2.9 36 31 16   101.47     LegendNANA
16:00 10.9 -2.1 40 29 11   101.50     LegendNANA
17:00 8.8 -1.9 47 30 12   101.55     LegendNANA
18:00 6.3 -1.7 57 28 6   101.66     LegendNANA
19:00 4.2 -2.0 64 28 4   101.67     LegendNANA
20:00 4.7 -1.2 65 29 7   101.65     LegendNANA
21:00 4.1 -1.2 69 29 10   101.61     LegendNANA
22:00 0.6 -2.8 78 27 3   101.68     LegendNANA
23:00 -1.3 -3.4 86 29 3   101.67   -2 LegendNANA

Notes on Data Quality.

Legend

  • E = Estimated
  • M = Missing
  • NA = Not Available
Date modified: